{"data":{"norad_id":59463,"intl_designator":"2024-068J","name":"STARLINK-31364","alt_names":[],"object_type":"PAYLOAD","status":"ACTIVE","operator":null,"country":"US","launch_date":"2024-04-10","launch_site_code":"AFETR","launch_vehicle":null,"mission":null,"orbit_class":"UNKNOWN","rcs_meters":null,"size_class":null,"mass_kg":null,"dimensions":null,"purposes":["comms"],"wikipedia_slug":null,"has_3d_model":false,"image_url":null,"decayed_at":null,"tle_current":{"epoch":"2026-05-25T04:24:20.257056Z","epoch_age_seconds":52414,"freshness":"FRESH","line1":"1 59463U 24068J   26145.18356779  .00000808  00000+0  38887-4 0  9994","line2":"2 59463  43.0011 318.8765 0001271 273.1884  86.8822 15.27580185120267","mean_motion":15.27580185,"eccentricity":0.0001271,"inclination_deg":43.0011,"raan_deg":318.8765,"arg_perigee_deg":273.1884,"mean_anomaly_deg":86.8822,"bstar":3.8887e-5,"rev_number":12026,"period_min":94.266737297329,"perigee_km":482.17648540076,"apogee_km":483.92059876556,"semimajor_km":6861.1855420832,"source":"CELESTRAK","updated_at":"2026-05-25T13:38:18.949234Z"}}}